Regional Weather Roundup
Issued by NWS Cleveland, OH

Home | Current Version | Previous Version | Text Only | Print | Product List | Glossary Off
Versions: 1 2 3 4 5 6 7 8 9 10 11 12 13 14 15 16 17 18 19 20 21 22 23 24 25 26 27 28 29 30 31 32 33 34 35 36 37 38 39 40 41 42 43 44 45 46 47 48 49 50

971
ASUS41 KCLE 052312
RWRCLE
OHIO REGIONAL WEATHER ROUNDUP
NATIONAL WEATHER SERVICE WILMINGTON, OH
700 PM EDT THU MAY 05 2016

NOTE: "FAIR" INDICATES FEW OR NO CLOUDS BELOW 12,000 FEET WITH NO
SIGNIFICANT WEATHER AND/OR OBSTRUCTIONS TO VISIBILITY.

OHZ001>008-015>018-024>027-034-035-043-044-060000-
   NORTHWEST OHIO

CITY           SKY/WX    TMP DP  RH WIND       PRES   REMARKS
DEFIANCE       FAIR      66  36  32 N16G24    29.86S
FINDLAY        CLOUDY    62  38  40 N13       29.84R
TOLEDO EXPRESS CLOUDY    63  39  41 N17G28    29.85S
TOLEDO EXEC    CLOUDY    62  39  42 VRB6      29.85S
LIMA           CLOUDY    59  43  55 N7        29.85R
$$

OHZ009>014-019>023-028>033-038-089-060000-
   NORTHEAST OHIO

CITY           SKY/WX    TMP DP  RH WIND       PRES   REMARKS
CLE-HOPKINS    FAIR      56  46  69 N10       29.84S
CLE-LAKEFRONT  CLOUDY    53  47  79 NW7       29.82R
CUY CO. ARPT   PTSUNNY   59  48  67 N9        29.82R
LORAIN-ELYRIA  CLOUDY    54  45  71 N9        29.83R
ASHTABULA      FAIR      57  44  62 NE10      29.80S
AKRON-CANTON   FAIR      58  39  49 N20       29.77R
WOOSTER        FAIR      57  43  59 N16G26    29.80R
MANSFIELD      FAIR      58  45  62 N13       29.82R
YOUNGSTOWN     PTSUNNY   57  44  62 N20G26    29.76S
$$

OHZ042-051>053-060>062-070>072-077>081-060000-
  SOUTHWEST OHIO

CITY           SKY/WX    TMP DP  RH WIND       PRES   REMARKS
CINC-COVINGTON FAIR      59  48  67 W6        29.86S
CINC-LUNKEN    FAIR      58  50  75 NW5       29.86S
HAMILTON       FAIR      60  50  69 W6        29.86S
DAYTON         PTSUNNY   59  40  49 N8        29.85R
WRIGHT-PAT AFB PTSUNNY   61  37  41 N10       29.83S
DAYTON GENERAL FAIR      59  38  45 N12       29.83S
WILMINGTON     FAIR      60  43  53 N12       29.82S
$$

OHZ036-037-039>041-045>050-054>059-063>069-073>076-082>088-060000-
  CENTRAL AND SOUTHEAST OHIO

CITY           SKY/WX    TMP DP  RH WIND       PRES   REMARKS
COLUMBUS       FAIR      59  42  53 N18G28    29.79S
OSU AIRPORT    FAIR      60  43  53 N16G26    29.80R
BOLTON FIELD   MOSUNNY   59  45  58 NE17G24   29.81S
RICKENBACK AFB FAIR      60  42  52 N23G30    29.79S
NEWARK         PTSUNNY   63  42  46 N12G20    29.78R
MARION         FAIR      60  41  49 N20G31    29.83R
LANCASTER      FAIR      60  45  57 N9G20     29.79R
ZANESVILLE     FAIR      63  41  44 N16G24    29.75R
NEW PHILLY     FAIR      60  43  53 N12G24    29.76R
$$




USA.gov is the U.S. government's official web portal to all federal, state and local government web resources and services.